HAZ2220 ZGHA-ZSHC

Flight info

Callsign HAZ2220
Flight time 1h 7m
Altitude 31100
Route PATVO DCT P645 DCT TXN G204 OREXA
Aircraft A320/M-SDE3FGHIRWY/LB1

Departure

Time 2026-05-04 01:00
Airport Changsha Huanghua International Airport (ZGHA)

Arrival

Time 2026-05-04 02:08
Airport Hangzhou Xiaoshan International Airport (ZSHC)
Time Latitude Longitude Altitude Speed Heading
2026-05-04 00:40 28.19039 113.21587 214 ft 0 kts 266°
2026-05-04 00:51 28.19040 113.21595 218 ft 2 kts 263°
2026-05-04 00:52 28.19041 113.21613 215 ft 2 kts 268°
2026-05-04 00:52 28.19042 113.21632 216 ft 2 kts 266°
2026-05-04 00:52 28.19043 113.21651 216 ft 2 kts 246°
2026-05-04 00:52 28.19053 113.21665 219 ft 2 kts 207°
2026-05-04 00:53 28.19069 113.21669 218 ft 2 kts 177°
2026-05-04 00:53 28.19079 113.21668 223 ft 0 kts 175°
2026-05-04 00:55 28.19077 113.21668 223 ft 2 kts 175°
2026-05-04 00:55 28.19045 113.21670 218 ft 7 kts 177°
2026-05-04 00:55 28.18996 113.21673 214 ft 6 kts 177°
2026-05-04 00:55 28.18950 113.21676 214 ft 9 kts 177°
2026-05-04 00:56 28.18888 113.21704 214 ft 10 kts 126°
2026-05-04 00:56 28.18875 113.21768 219 ft 9 kts 129°
2026-05-04 00:56 28.18797 113.21794 214 ft 15 kts 170°
2026-05-04 00:56 28.18675 113.21804 214 ft 20 kts 176°
2026-05-04 00:57 28.18529 113.21814 215 ft 23 kts 177°
2026-05-04 00:57 28.18352 113.21824 214 ft 22 kts 177°
2026-05-04 00:57 28.18204 113.21834 219 ft 24 kts 177°
2026-05-04 00:57 28.18022 113.21844 214 ft 29 kts 177°
2026-05-04 00:58 28.17829 113.21856 217 ft 26 kts 176°
2026-05-04 00:58 28.17746 113.21903 219 ft 11 kts 111°
2026-05-04 00:58 28.17742 113.21940 215 ft 0 kts 91°
2026-05-04 00:59 28.17742 113.21974 216 ft 9 kts 87°
2026-05-04 00:59 28.17787 113.22044 223 ft 12 kts 10°
2026-05-04 00:59 28.17810 113.22044 219 ft 0 kts 356°
2026-05-04 00:59 28.17812 113.22044 219 ft 3 kts 356°
2026-05-04 01:00 28.18074 113.22029 217 ft 79 kts 356°
2026-05-04 01:00 28.18858 113.21982 220 ft 144 kts 357°
2026-05-04 01:00 28.19983 113.21911 550 ft 169 kts 357°
2026-05-04 01:00 28.21177 113.21828 1310 ft 172 kts 357°
2026-05-04 01:01 28.22366 113.21743 2145 ft 170 kts 358°
2026-05-04 01:01 28.23543 113.21660 2941 ft 169 kts 358°
2026-05-04 01:01 28.24711 113.21576 3617 ft 171 kts 358°
2026-05-04 01:01 28.25952 113.21488 4109 ft 187 kts 358°
2026-05-04 01:02 28.27302 113.21394 4586 ft 203 kts 358°
2026-05-04 01:02 28.28779 113.21359 5120 ft 222 kts 11°
2026-05-04 01:02 28.30200 113.22027 5718 ft 225 kts 38°
2026-05-04 01:02 28.31189 113.23378 5870 ft 225 kts 66°
2026-05-04 01:03 28.31507 113.25105 5902 ft 227 kts 93°
2026-05-04 01:03 28.31084 113.26819 5904 ft 229 kts 120°
2026-05-04 01:03 28.29995 113.28134 5905 ft 232 kts 148°
2026-05-04 01:03 28.28545 113.28952 5949 ft 232 kts 153°
2026-05-04 01:04 28.27079 113.29740 6543 ft 235 kts 153°
2026-05-04 01:04 28.25597 113.30542 7322 ft 238 kts 153°
2026-05-04 01:04 28.24089 113.31359 8118 ft 242 kts 153°
2026-05-04 01:04 28.22559 113.32185 8907 ft 245 kts 153°
2026-05-04 01:05 28.21007 113.33023 9714 ft 249 kts 153°
2026-05-04 01:05 28.19438 113.33884 10457 ft 252 kts 149°
2026-05-04 01:05 28.18092 113.35148 11179 ft 254 kts 134°
2026-05-04 01:05 28.16837 113.36578 11911 ft 258 kts 135°
2026-05-04 01:06 28.15784 113.38212 12667 ft 259 kts 112°
2026-05-04 01:06 28.15140 113.40142 13315 ft 266 kts 110°
2026-05-04 01:06 28.14500 113.42213 13747 ft 283 kts 109°
2026-05-04 01:06 28.13779 113.44361 14133 ft 300 kts 113°
2026-05-04 01:07 28.12943 113.46566 14489 ft 317 kts 114°
2026-05-04 01:07 28.12028 113.48912 14836 ft 334 kts 114°
2026-05-04 01:07 28.11060 113.51413 15144 ft 351 kts 114°
2026-05-04 01:07 28.10073 113.54014 15439 ft 368 kts 113°
2026-05-04 01:08 28.09056 113.56745 15708 ft 385 kts 113°
2026-05-04 01:08 28.08009 113.59602 15935 ft 401 kts 113°
2026-05-04 01:08 28.06930 113.62571 16286 ft 413 kts 112°
2026-05-04 01:08 28.05834 113.65598 16820 ft 418 kts 112°
2026-05-04 01:09 28.04903 113.68727 17403 ft 422 kts 103°
2026-05-04 01:09 28.04535 113.72036 17971 ft 427 kts 90°
2026-05-04 01:09 28.04760 113.75396 18508 ft 431 kts 81°
2026-05-04 01:09 28.05185 113.78781 18965 ft 436 kts 81°
2026-05-04 01:10 28.05612 113.82199 19396 ft 442 kts 81°
2026-05-04 01:10 28.06041 113.85662 19831 ft 447 kts 81°
2026-05-04 01:10 28.06468 113.89161 20261 ft 451 kts 82°
2026-05-04 01:10 28.06896 113.92702 20683 ft 456 kts 82°
2026-05-04 01:11 28.07330 113.96277 21081 ft 461 kts 82°
2026-05-04 01:11 28.07771 113.99894 21483 ft 466 kts 82°
2026-05-04 01:11 28.08215 114.03544 21871 ft 470 kts 82°
2026-05-04 01:11 28.08662 114.07225 22262 ft 474 kts 82°
2026-05-04 01:12 28.09114 114.10952 22605 ft 479 kts 82°
2026-05-04 01:12 28.09569 114.14706 22955 ft 483 kts 82°
2026-05-04 01:12 28.10024 114.18494 23302 ft 488 kts 82°
2026-05-04 01:12 28.10481 114.22317 23635 ft 492 kts 82°
2026-05-04 01:13 28.10940 114.26168 23929 ft 496 kts 82°
2026-05-04 01:13 28.11401 114.30048 24219 ft 499 kts 82°
2026-05-04 01:13 28.11907 114.33945 24509 ft 501 kts 78°
2026-05-04 01:13 28.12779 114.37771 24811 ft 503 kts 72°
2026-05-04 01:14 28.13757 114.41594 25097 ft 506 kts 73°
2026-05-04 01:14 28.14727 114.45433 25376 ft 509 kts 73°
2026-05-04 01:14 28.15697 114.49302 25649 ft 511 kts 73°
2026-05-04 01:14 28.16668 114.53192 25923 ft 514 kts 73°
2026-05-04 01:15 28.17642 114.57096 26187 ft 516 kts 73°
2026-05-04 01:15 28.18626 114.61026 26444 ft 519 kts 73°
2026-05-04 01:15 28.19615 114.64963 26686 ft 521 kts 73°
2026-05-04 01:15 28.20610 114.68928 26924 ft 524 kts 73°
2026-05-04 01:16 28.21606 114.72904 27163 ft 526 kts 73°
2026-05-04 01:16 28.22603 114.76897 27386 ft 528 kts 73°
2026-05-04 01:16 28.23603 114.80912 27597 ft 530 kts 73°
2026-05-04 01:16 28.24609 114.84943 27809 ft 532 kts 73°
2026-05-04 01:17 28.25619 114.88994 27990 ft 534 kts 73°
2026-05-04 01:17 28.26628 114.93050 28190 ft 536 kts 73°
2026-05-04 01:17 28.27638 114.97122 28451 ft 536 kts 74°
2026-05-04 01:17 28.28642 115.01189 28716 ft 536 kts 74°
2026-05-04 01:18 28.29644 115.05261 28973 ft 536 kts 74°
2026-05-04 01:18 28.30646 115.09339 29230 ft 536 kts 74°
2026-05-04 01:18 28.31650 115.13416 29485 ft 537 kts 74°
2026-05-04 01:18 28.32654 115.17495 29738 ft 537 kts 74°
2026-05-04 01:19 28.33661 115.21578 30010 ft 538 kts 74°
2026-05-04 01:19 28.34342 115.24344 30172 ft 538 kts 74°
2026-05-04 01:19 28.35346 115.28432 30389 ft 538 kts 74°
2026-05-04 01:19 28.36676 115.33863 30657 ft 540 kts 74°
2026-05-04 01:20 28.37354 115.36635 30784 ft 540 kts 74°
2026-05-04 01:20 28.38686 115.42086 31039 ft 542 kts 74°
2026-05-04 01:20 28.39366 115.44876 31171 ft 543 kts 74°
2026-05-04 01:21 28.41384 115.53160 31250 ft 545 kts 74°
2026-05-04 01:21 28.43392 115.61453 31252 ft 544 kts 74°
2026-05-04 01:22 28.45389 115.69743 31248 ft 544 kts 74°
2026-05-04 01:22 28.47391 115.78037 31249 ft 544 kts 74°
2026-05-04 01:23 28.49402 115.86402 31246 ft 553 kts 74°
2026-05-04 01:23 28.51437 115.94880 31243 ft 558 kts 74°
2026-05-04 01:24 28.53489 116.03422 31240 ft 561 kts 74°
2026-05-04 01:24 28.55535 116.11993 31241 ft 563 kts 75°
2026-05-04 01:25 28.57574 116.20591 31249 ft 563 kts 75°
2026-05-04 01:25 28.59609 116.29194 31248 ft 563 kts 75°
2026-05-04 01:26 28.61638 116.37805 31246 ft 563 kts 75°
2026-05-04 01:26 28.63670 116.46414 31246 ft 563 kts 75°
2026-05-04 01:27 28.65698 116.55021 31253 ft 563 kts 75°
2026-05-04 01:27 28.67710 116.63630 31256 ft 563 kts 75°
2026-05-04 01:28 28.69712 116.72253 31249 ft 563 kts 75°
2026-05-04 01:28 28.71716 116.80871 31247 ft 563 kts 75°
2026-05-04 01:29 28.73720 116.89492 31242 ft 563 kts 75°
2026-05-04 01:29 28.75718 116.98123 31246 ft 563 kts 75°
2026-05-04 01:30 28.77707 117.06748 31247 ft 562 kts 75°
2026-05-04 01:30 28.79691 117.15367 31245 ft 562 kts 75°
2026-05-04 01:31 28.81669 117.23987 31251 ft 562 kts 73°
2026-05-04 01:31 28.84821 117.32082 31252 ft 558 kts 54°
2026-05-04 01:32 28.89790 117.38745 31250 ft 548 kts 37°
2026-05-04 01:32 28.95519 117.44570 31257 ft 548 kts 37°
2026-05-04 01:33 29.01199 117.50377 31265 ft 548 kts 37°
2026-05-04 01:33 29.06875 117.56186 31269 ft 547 kts 37°
2026-05-04 01:34 29.12541 117.61991 31265 ft 547 kts 37°
2026-05-04 01:34 29.18212 117.67800 31265 ft 547 kts 37°
2026-05-04 01:35 29.23876 117.73620 31265 ft 547 kts 38°
2026-05-04 01:35 29.29544 117.79447 31269 ft 547 kts 38°
2026-05-04 01:36 29.35209 117.85276 31264 ft 547 kts 38°
2026-05-04 01:36 29.40865 117.91119 31268 ft 547 kts 38°
2026-05-04 01:37 29.46519 117.96967 31268 ft 547 kts 38°
2026-05-04 01:37 29.52175 118.02814 31273 ft 547 kts 38°
2026-05-04 01:38 29.57828 118.08676 31257 ft 547 kts 38°
2026-05-04 01:38 29.63462 118.14531 31258 ft 538 kts 38°
2026-05-04 01:39 29.68570 118.20628 31261 ft 531 kts 52°
2026-05-04 01:39 29.70487 118.24257 31006 ft 532 kts 63°
2026-05-04 01:39 29.71848 118.28216 30652 ft 533 kts 75°
2026-05-04 01:39 29.72605 118.32378 30307 ft 531 kts 85°
2026-05-04 01:40 29.72765 118.36603 29914 ft 528 kts 96°
2026-05-04 01:40 29.72434 118.40790 29508 ft 525 kts 99°
2026-05-04 01:40 29.72051 118.44961 29106 ft 525 kts 99°
2026-05-04 01:40 29.71669 118.49141 28705 ft 525 kts 99°
2026-05-04 01:41 29.71292 118.53313 28318 ft 525 kts 99°
2026-05-04 01:41 29.70916 118.57490 27935 ft 525 kts 99°
2026-05-04 01:41 29.70534 118.61669 27556 ft 525 kts 99°
2026-05-04 01:41 29.70151 118.65845 27190 ft 525 kts 99°
2026-05-04 01:42 29.69769 118.70018 26821 ft 524 kts 99°
2026-05-04 01:42 29.69389 118.74183 26457 ft 524 kts 99°
2026-05-04 01:42 29.69012 118.78352 26084 ft 525 kts 99°
2026-05-04 01:42 29.68635 118.82531 25733 ft 525 kts 99°
2026-05-04 01:43 29.68259 118.86684 25278 ft 516 kts 99°
2026-05-04 01:43 29.67892 118.90730 24895 ft 502 kts 99°
2026-05-04 01:43 29.67535 118.94665 24561 ft 489 kts 99°
2026-05-04 01:43 29.67183 118.98508 24225 ft 481 kts 99°
2026-05-04 01:44 29.66831 119.02316 23893 ft 478 kts 99°
2026-05-04 01:44 29.66479 119.06105 23528 ft 475 kts 99°
2026-05-04 01:44 29.66244 119.09887 23129 ft 474 kts 91°
2026-05-04 01:44 29.66525 119.13645 22728 ft 471 kts 81°
2026-05-04 01:45 29.67351 119.17279 22352 ft 468 kts 69°
2026-05-04 01:45 29.68681 119.20675 21972 ft 463 kts 59°
2026-05-04 01:45 29.72282 119.26700 21228 ft 453 kts 52°
2026-05-04 01:46 29.74102 119.29629 20863 ft 447 kts 52°
2026-05-04 01:46 29.75889 119.32513 20501 ft 438 kts 52°
2026-05-04 01:46 29.77640 119.35344 20148 ft 431 kts 52°
2026-05-04 01:46 29.79354 119.38127 19790 ft 419 kts 51°
2026-05-04 01:47 29.81005 119.40812 19446 ft 405 kts 51°
2026-05-04 01:47 29.82633 119.43446 19100 ft 401 kts 51°
2026-05-04 01:47 29.84239 119.46041 18759 ft 395 kts 51°
2026-05-04 01:47 29.85834 119.48612 18418 ft 392 kts 50°
2026-05-04 01:48 29.87406 119.51147 18020 ft 387 kts 51°
2026-05-04 01:48 29.88982 119.53694 17623 ft 384 kts 51°
2026-05-04 01:48 29.90504 119.56160 17237 ft 381 kts 51°
2026-05-04 01:48 29.92049 119.58667 16853 ft 377 kts 51°
2026-05-04 01:49 29.93560 119.61128 16475 ft 374 kts 51°
2026-05-04 01:49 29.95057 119.63563 16097 ft 371 kts 51°
2026-05-04 01:49 29.96543 119.65979 15734 ft 368 kts 52°
2026-05-04 01:49 29.98017 119.68377 15375 ft 365 kts 52°
2026-05-04 01:50 29.99482 119.70761 15008 ft 362 kts 52°
2026-05-04 01:50 30.00932 119.73121 14654 ft 360 kts 52°
2026-05-04 01:50 30.02375 119.75470 14307 ft 357 kts 52°
2026-05-04 01:50 30.03747 119.77853 14047 ft 357 kts 58°
2026-05-04 01:51 30.04903 119.80385 13763 ft 356 kts 60°
2026-05-04 01:51 30.06038 119.82915 13467 ft 354 kts 60°
2026-05-04 01:51 30.07168 119.85427 13186 ft 352 kts 60°
2026-05-04 01:51 30.08292 119.87922 12903 ft 349 kts 61°
2026-05-04 01:52 30.09407 119.90406 12622 ft 347 kts 61°
2026-05-04 01:52 30.10515 119.92877 12341 ft 345 kts 61°
2026-05-04 01:52 30.11618 119.95334 12063 ft 343 kts 61°
2026-05-04 01:52 30.12713 119.97774 11789 ft 341 kts 61°
2026-05-04 01:53 30.13803 120.00199 11515 ft 339 kts 61°
2026-05-04 01:53 30.14887 120.02608 11242 ft 338 kts 61°
2026-05-04 01:53 30.15962 120.05001 10977 ft 332 kts 61°
2026-05-04 01:53 30.17012 120.07346 10718 ft 326 kts 62°
2026-05-04 01:54 30.18039 120.09644 10500 ft 317 kts 62°
2026-05-04 01:54 30.19035 120.11878 10289 ft 309 kts 62°
2026-05-04 01:54 30.19681 120.13325 10148 ft 303 kts 62°
2026-05-04 01:54 30.20952 120.16174 9850 ft 294 kts 62°
2026-05-04 01:55 30.21571 120.17565 9689 ft 292 kts 61°
2026-05-04 01:55 30.22811 120.20351 9370 ft 291 kts 61°
2026-05-04 01:55 30.23423 120.21725 9219 ft 290 kts 61°
2026-05-04 01:55 30.24340 120.23791 8993 ft 288 kts 61°
2026-05-04 01:56 30.25251 120.25842 8767 ft 286 kts 61°
2026-05-04 01:56 30.26159 120.27881 8529 ft 284 kts 61°
2026-05-04 01:56 30.27062 120.29915 8303 ft 283 kts 60°
2026-05-04 01:56 30.27958 120.31929 8077 ft 281 kts 60°
2026-05-04 01:57 30.28849 120.33935 7857 ft 280 kts 60°
2026-05-04 01:57 30.29737 120.35932 7634 ft 279 kts 60°
2026-05-04 01:57 30.30619 120.37921 7401 ft 276 kts 60°
2026-05-04 01:57 30.31507 120.39922 7189 ft 275 kts 60°
2026-05-04 01:58 30.32364 120.41858 6973 ft 273 kts 60°
2026-05-04 01:58 30.33229 120.43811 6759 ft 272 kts 60°
2026-05-04 01:58 30.34089 120.45753 6542 ft 270 kts 60°
2026-05-04 01:58 30.34941 120.47686 6311 ft 269 kts 60°
2026-05-04 01:59 30.35791 120.49613 6083 ft 269 kts 60°
2026-05-04 01:59 30.36653 120.51559 5848 ft 267 kts 60°
2026-05-04 01:59 30.37499 120.53471 5626 ft 267 kts 61°
2026-05-04 01:59 30.38324 120.55340 5400 ft 260 kts 61°
2026-05-04 02:00 30.39126 120.57164 5202 ft 249 kts 61°
2026-05-04 02:00 30.39905 120.58933 5002 ft 238 kts 61°
2026-05-04 02:00 30.40642 120.60609 4804 ft 229 kts 61°
2026-05-04 02:00 30.41351 120.62226 4595 ft 222 kts 63°
2026-05-04 02:01 30.41694 120.63954 4386 ft 224 kts 93°
2026-05-04 02:01 30.41188 120.65648 4182 ft 227 kts 126°
2026-05-04 02:01 30.39995 120.66783 3994 ft 225 kts 153°
2026-05-04 02:01 30.38602 120.67582 3826 ft 217 kts 153°
2026-05-04 02:02 30.37205 120.68119 3636 ft 210 kts 181°
2026-05-04 02:02 30.35881 120.67621 3473 ft 199 kts 221°
2026-05-04 02:02 30.35113 120.66361 3309 ft 190 kts 248°
2026-05-04 02:02 30.34551 120.64981 3181 ft 189 kts 243°
2026-05-04 02:03 30.33931 120.63649 3004 ft 187 kts 243°
2026-05-04 02:03 30.33327 120.62319 2920 ft 186 kts 243°
2026-05-04 02:03 30.32738 120.60997 2898 ft 181 kts 244°
2026-05-04 02:03 30.32184 120.59745 2884 ft 169 kts 243°
2026-05-04 02:04 30.31655 120.58548 2756 ft 165 kts 244°
2026-05-04 02:04 30.31134 120.57368 2546 ft 164 kts 243°
2026-05-04 02:04 30.30618 120.56198 2360 ft 163 kts 243°
2026-05-04 02:04 30.30103 120.55032 2145 ft 161 kts 243°
2026-05-04 02:05 30.29617 120.53931 1949 ft 148 kts 242°
2026-05-04 02:05 30.29165 120.52910 1740 ft 137 kts 242°
2026-05-04 02:05 30.28729 120.51923 1564 ft 138 kts 242°
2026-05-04 02:05 30.28291 120.50931 1376 ft 138 kts 242°
2026-05-04 02:06 30.27856 120.49950 1199 ft 137 kts 241°
2026-05-04 02:06 30.27423 120.48970 1018 ft 136 kts 242°
2026-05-04 02:06 30.26987 120.47993 834 ft 136 kts 242°
2026-05-04 02:06 30.26564 120.47017 655 ft 136 kts 242°
2026-05-04 02:07 30.26133 120.46047 475 ft 136 kts 242°
2026-05-04 02:07 30.25703 120.45079 287 ft 135 kts 242°
2026-05-04 02:07 30.25274 120.44114 102 ft 135 kts 242°
2026-05-04 02:07 30.24869 120.43198 33 ft 102 kts 243°
2026-05-04 02:08 30.24654 120.42712 30 ft 40 kts 243°
2026-05-04 02:08 30.24527 120.42423 30 ft 31 kts 242°
2026-05-04 02:08 30.24391 120.42241 32 ft 30 kts 219°
2026-05-04 02:08 30.24306 120.42167 32 ft 14 kts 216°
2026-05-04 02:09 30.24258 120.42128 32 ft 6 kts 216°
2026-05-04 02:09 30.24222 120.42102 32 ft 8 kts 198°
2026-05-04 02:09 30.24152 120.42126 32 ft 14 kts 154°
2026-05-04 02:09 30.24060 120.42181 31 ft 12 kts 136°
2026-05-04 02:10 30.24076 120.42288 32 ft 18 kts 62°
2026-05-04 02:10 30.24138 120.42426 32 ft 13 kts 62°
2026-05-04 02:10 30.24109 120.42506 32 ft 13 kts 156°
2026-05-04 02:10 30.24063 120.42532 32 ft 6 kts 160°
2026-05-04 02:11 30.24024 120.42511 32 ft 6 kts 219°
2026-05-04 02:11 30.24010 120.42497 32 ft 0 kts 222°
2026-05-04 02:11 30.24011 120.42498 32 ft 0 kts 222°